This is the latest recevied weather packets stored in our database for station/object OE7BJT-13. If no packets are shown the sender has not sent any weather packets the latest 10 day(s).
| Time | Temp. | Humidity | Pressure | Rain* | Wind** | Luminosity | Snow |
|---|---|---|---|---|---|---|---|
| 1777864314 | 10.56° C | 81% | 1016 hPa | - | - | - | - |
| 1777863709 | 10.56° C | 82% | 1016 hPa | - | - | - | - |
| 1777863103 | 10.56° C | 81% | 1016 hPa | - | - | - | - |
| 1777862498 | 11.11° C | 76% | 1016 hPa | - | - | - | - |
| 1777861892 | 11.11° C | 77% | 1016 hPa | - | - | - | - |
| 1777861286 | 11.11° C | 77% | 1016 hPa | - | - | - | - |
| 1777860681 | 11.11° C | 78% | 1016 hPa | - | - | - | - |
| 1777860075 | 11.11° C | 74% | 1016 hPa | - | - | - | - |
| 1777859469 | 11.11° C | 76% | 1016 hPa | - | - | - | - |
| 1777858864 | 11.67° C | 72% | 1016 hPa | - | - | - | - |
| 1777858258 | 11.67° C | 75% | 1016 hPa | - | - | - | - |
| 1777857653 | 11.67° C | 74% | 1016 hPa | - | - | - | - |
| 1777857047 | 11.11° C | 73% | 1016 hPa | - | - | - | - |
| 1777856441 | 11.67° C | 72% | 1015 hPa | - | - | - | - |
| 1777855836 | 11.67° C | 73% | 1015 hPa | - | - | - | - |
| 1777855230 | 11.67° C | 70% | 1015 hPa | - | - | - | - |
| 1777854625 | 11.67° C | 69% | 1015 hPa | - | - | - | - |
| 1777854019 | 11.67° C | 71% | 1015 hPa | - | - | - | - |
| 1777853413 | 12.22° C | 68% | 1015 hPa | - | - | - | - |
| 1777852808 | 11.67° C | 70% | 1015 hPa | - | - | - | - |
| 1777852202 | 12.22° C | 65% | 1015 hPa | - | - | - | - |
| 1777851597 | 12.78° C | 62% | 1015 hPa | - | - | - | - |
| 1777850385 | 12.78° C | 60% | 1015 hPa | - | - | - | - |
| 1777849780 | 12.78° C | 62% | 1015 hPa | - | - | - | - |
| 1777849174 | 12.78° C | 62% | 1015 hPa | - | - | - | - |
* Rain since midnight (hover to see other rain measurements)
** Current wind speed in m/s (hover to see current wind gust speed)